Pittsburgh Allegheny Co., PA

4:14 PM EDT on June 25, 2017 (GMT -0400)
Allegheny County

Weather History for KAGC - July, 2014

Change the Weather History Date:

Thursday, July 3, 2014

  Actual Average Record
Temperature  
Mean Temperature 74 °F -  
Max Temperature 84 °F 84 °F 91 °F (2012)
Min Temperature 64 °F 60 °F 48 °F (1988)
Cooling Degree Days 9    
Growing Degree Days 24 (Base 50)    
Moisture  
Dew Point 62 °F    
Average Humidity 66    
Maximum Humidity 78    
Minimum Humidity 42    
Precipitation  
Precipitation 0.01 in - - ()
Sea Level Pressure  
Sea Level Pressure 29.98 in    
Wind  
Wind Speed 6 mph (West)    
Max Wind Speed 23 mph    
Max Gust Speed 28 mph    
Visibility 9 miles    
Events Rain    
Averages and records for this station are not official NWS values.
T = Trace of Precipitation, MM = Missing Value Source: NWS Daily Summary

Daily Weather History Graph

Daily Weather History Graph

Search for Another Location

Airport or City:

Trip Planner

Search our weather history database for the weather conditions in past years. The results will help you decide how hot, cold, wet, or windy it might be!

Date:

Astronomy

Jul. 03, 2014 Rise Set
Actual Time 5:54 AM EDT 8:53 PM EDT
Civil Twilight 5:21 AM EDT 9:26 PM EDT
Nautical Twilight 4:39 AM EDT 10:07 PM EDT
Astronomical Twilight 3:51 AM EDT 10:56 PM EDT
Moon 11:53 AM EDT (7/3) No Moon Set
Length of Visible Light 16h 04m
Length of Day
14h 58m
Waxing Crescent, 33% of the Moon is Illuminated
Jul 3
Waxing Crescent
Jul 5
First Quarter
Jul 12
Full
Jul 18
Last Quarter
Jul 26
New

Hourly Weather History & Observations

Time (EDT) Temp. Heat Index Dew Point Humidity Pressure Visibility Wind Dir Wind Speed Gust Speed Precip Events Conditions
12:53 AM 73.0 °F - 64.9 °F 76% 29.94 in 10.0 mi South 5.8 mph - N/A   Clear
1:53 AM 73.0 °F - 64.9 °F 76% 29.94 in 10.0 mi SSW 3.5 mph - N/A   Partly Cloudy
2:53 AM 72.0 °F - 64.9 °F 78% 29.93 in 10.0 mi NW 6.9 mph - N/A   Clear
3:53 AM 71.1 °F - 64.0 °F 78% 29.93 in 10.0 mi Calm Calm - N/A   Clear
4:53 AM 70.0 °F - 63.0 °F 78% 29.94 in 10.0 mi Calm Calm - N/A   Clear
5:53 AM 70.0 °F - 63.0 °F 78% 29.94 in 10.0 mi Calm Calm - N/A   Clear
6:53 AM 71.1 °F - 64.0 °F 78% 29.95 in 10.0 mi Calm Calm - N/A   Mostly Cloudy
7:53 AM 72.0 °F - 64.9 °F 78% 29.95 in 7.0 mi SSE 4.6 mph - N/A   Clear
8:53 AM 75.9 °F - 66.0 °F 71% 29.94 in 9.0 mi South 8.1 mph - N/A   Partly Cloudy
9:53 AM 73.4 °F - 66.2 °F 78% 29.97 in 4.0 mi SW 5.8 mph - N/A Rain Light Rain
10:53 AM 77.0 °F - 68.0 °F 74% 29.96 in 7.0 mi SSW 6.9 mph - 0.00 in   Mostly Cloudy
11:53 AM 80.1 °F 82.7 °F 68.0 °F 67% 29.95 in 7.0 mi SW 11.5 mph - N/A   Mostly Cloudy
12:53 PM 81.0 °F 82.7 °F 64.9 °F 58% 29.94 in 10.0 mi West 11.5 mph 20.7 mph N/A   Mostly Cloudy
1:53 PM 82.0 °F 82.7 °F 61.0 °F 49% 29.94 in 10.0 mi WSW 23.0 mph 27.6 mph N/A   Mostly Cloudy
2:53 PM 78.8 °F - 64.4 °F 61% 29.97 in 10.0 mi NW 10.4 mph 21.9 mph N/A   Mostly Cloudy
3:53 PM 78.1 °F - 61.0 °F 56% 29.97 in 10.0 mi WNW 9.2 mph 23.0 mph N/A   Mostly Cloudy
4:53 PM 79.0 °F - 57.9 °F 48% 29.97 in 10.0 mi West 11.5 mph 23.0 mph N/A   Partly Cloudy
5:53 PM 78.1 °F - 55.0 °F 45% 29.99 in 10.0 mi West 11.5 mph 23.0 mph N/A   Partly Cloudy
6:53 PM 77.0 °F - 52.0 °F 42% 30.00 in 10.0 mi West 8.1 mph 18.4 mph N/A   Clear
7:53 PM 75.0 °F - 53.1 °F 46% 30.02 in 10.0 mi West 9.2 mph - N/A   Clear
8:53 PM 72.0 °F - 55.9 °F 57% 30.04 in 10.0 mi NW 10.4 mph 17.3 mph N/A   Mostly Cloudy
9:53 PM 69.1 °F - 57.0 °F 65% 30.07 in 10.0 mi NNW 10.4 mph 21.9 mph N/A   Clear
10:53 PM 66.9 °F - 57.0 °F 70% 30.08 in 10.0 mi NNW 5.8 mph - N/A   Partly Cloudy
11:53 PM 64.9 °F - 55.9 °F 73% 30.09 in 10.0 mi NW 6.9 mph - N/A   Clear